Flag for Germany Weather past 2 weeks in Bottrop, North Rhine-Westphalia, Germany

Now
41 °F

Partly cloudy.


Feels Like: 35 °F
Forecast: 37 / 48 °F
Wind: 9 mph from Northwest

Location: Duesseldorf

Current Time: Mar 5, 2015 at 1:30:07 AM

Latest Report: Mar 5, 2015 at 12:50 AM


Visibility: N/A

Pressure: 30.51 "Hg

Humidity: 81%

Dew point: 36 °F

Location of BottropLocation

Historic Weather in Bottrop — Graph

°F

Bottrop temperature yesterday

Maximum temperature yesterday: 45 °F (at 1:20 PM)
Minimum temperature yesterday: 34 °F (at 3:50 AM)
Average temperature yesterday: 39 °F

Past Weeks' High & Low Weather Summary

 TemperatureHumidityPressure
High52 °F (Mar 1, 10:50 AM)100% (Feb 18, 1:20 AM)30.77 "Hg (Feb 18, 1:20 AM)
Low28 °F (Feb 28, 4:20 AM)43% (Feb 28, 3:50 PM)29.36 "Hg (Feb 21, 3:50 AM)
Average40 °F80%29.92 "Hg
* Reported Feb 18 12:20 AM — Mar 5 12:20 AM, Bottrop, Weather by CustomWeather, © 2015

Note: Actual official high and low records may vary slightly from our data, if they occured in-between our weather recording intervals... More about our weather records

Advertising

Bottrop weather history for previous 24 hours

 ConditionsComfort  
Time TempWeatherWind HumidityBarometerVisibility
12:20 AM
Thu, Mar 5
41 °FPartly cloudy.9 mph81%30.51 "HgN/A
11:50 PM
Wed, Mar 4
41 °FPartly cloudy.10 mph87%30.48 "HgN/A
11:20 PM41 °FPartly cloudy.12 mph87%30.48 "HgN/A
10:20 PM41 °FPartly cloudy.12 mph81%30.45 "HgN/A
9:50 PM41 °FPassing clouds.12 mph81%30.42 "HgN/A
9:20 PM41 °FPartly cloudy.10 mph81%30.42 "HgN/A
8:50 PM39 °FSprinkles. Partly cloudy.8 mph87%30.39 "HgN/A
8:20 PM39 °FSprinkles. Passing clouds.9 mph87%30.39 "HgN/A
7:50 PM39 °FPassing clouds.7 mph87%30.39 "HgN/A
7:20 PM39 °FSprinkles. Partly cloudy.5 mph87%30.36 "HgN/A
6:50 PM39 °FLight rain. Partly cloudy.9 mph87%30.36 "HgN/A
6:20 PM39 °FSprinkles. Partly cloudy.17 mph81%30.36 "HgN/A
5:50 PM43 °FScattered clouds.14 mph71%30.33 "HgN/A
5:20 PM45 °FScattered clouds.14 mph66%30.30 "HgN/A
4:50 PM45 °FScattered clouds.16 mph61%30.30 "HgN/A
4:20 PM43 °FScattered clouds.14 mph76%30.30 "HgN/A
3:50 PM43 °FScattered clouds.12 mph76%30.27 "HgN/A
3:20 PM45 °FSprinkles. Scattered clouds.13 mph66%30.27 "HgN/A
2:50 PM43 °FSprinkles. Broken clouds.10 mph71%30.27 "HgN/A
2:20 PM45 °FSprinkles. Broken clouds.14 mph66%30.27 "HgN/A
1:50 PM43 °FSprinkles. Broken clouds.16 mph71%30.27 "HgN/A
1:20 PM45 °FPartly sunny.17 mph66%30.27 "HgN/A
12:50 PM43 °FBroken clouds.12 mph71%30.27 "HgN/A
12:20 PM43 °FBroken clouds.15 mph71%30.27 "HgN/A
11:50 AM43 °FPartly sunny.13 mph71%30.24 "HgN/A
11:20 AM43 °FPartly sunny.13 mph71%30.24 "HgN/A
10:50 AM41 °FPartly sunny.13 mph76%30.24 "HgN/A
10:20 AM41 °FScattered clouds.12 mph76%30.24 "HgN/A
9:50 AM41 °FScattered clouds.13 mph76%30.21 "HgN/A
9:20 AM39 °FPassing clouds.12 mph81%30.21 "HgN/A
8:50 AM37 °FPassing clouds.12 mph81%30.21 "HgN/A
8:20 AM36 °FPassing clouds.12 mph87%30.21 "HgN/A
7:50 AM36 °FPartly sunny.12 mph87%30.18 "HgN/A
7:20 AM34 °FScattered clouds.10 mph93%30.18 "HgN/A
6:50 AM34 °FPassing clouds.12 mph93%30.18 "HgN/A
6:20 AM34 °FClear.12 mph93%30.18 "Hg10 mi
5:50 AM34 °FClear.10 mph93%30.15 "Hg10 mi
5:20 AM34 °FClear.10 mph93%30.15 "Hg10 mi
4:50 AM34 °FClear.10 mph93%30.15 "Hg10 mi
4:20 AM34 °FClear.9 mph93%30.15 "Hg10 mi
3:50 AM34 °FClear.10 mph87%30.12 "Hg10 mi
3:20 AM36 °FPassing clouds.10 mph87%30.12 "HgN/A
2:50 AM36 °FPassing clouds.8 mph87%30.12 "HgN/A
2:20 AM37 °FClear.9 mph81%30.12 "Hg10 mi
1:50 AM37 °FClear.8 mph87%30.12 "Hg10 mi
1:20 AM37 °FClear.10 mph87%30.09 "Hg10 mi
Weather by CustomWeather, © 2015

See weather overviewHow to use our weather pages